Regional Weather Roundup
Issued by NWS Mobile, AL

Home | Current Version | Previous Version | Text Only | Print | Product List | Glossary On
Versions: 1 2 3 4 5 6 7 8 9 10 11 12 13 14 15 16 17 18 19 20 21 22 23 24 25 26 27 28 29 30 31 32 33 34 35 36 37 38 39 40 41 42 43 44 45 46 47 48 49 50
000
ASUS44 KMOB 282010
RWRMOB
REGIONAL WEATHER ROUNDUP
NATIONAL WEATHER SERVICE MOBILE AL
200 PM CST SUN DEC 28 2014

NOTE: "FAIR" INDICATES FEW OR NO CLOUDS BELOW 12,000 FEET WITH NO
      SIGNIFICANT WEATHER AND/OR OBSTRUCTIONS TO VISIBILITY.

  * THESE STATIONS ARE PART OF THE UNIVERSITY OF SOUTH ALABAMA
    MESONET AND ARE NOT UNDER NWS OR FAA QUALITY CONTROL.

ALZ061>064-282100-
COASTAL ALABAMA

CITY           SKY/WX    TMP DP  RH WIND       PRES   REMARKS
MOBILE REG APT CLOUDY    71  67  87 S7        30.01F
BROOKLEY FIELD RAIN      68  66  93 S7        30.04R FOG
USA CAMPUS*      N/A     72  68  88 SE6       30.01F
DOG RIVER*     NOT AVBL


CITY           SKY/WX    TMP DP  RH WIND       PRES   REMARKS
MOUNT VERNON*  NOT AVBL
SARALAND*      NOT AVBL
BAY MINETTE*   NOT AVBL
LOXLEY*          N/A     73  68  83 CALM      30.01F
ROBERTSDALE*     N/A     73  68  83 CALM      30.01F
FAIRHOPE*        N/A     70  68  94 SW6       30.02F
ELBERTA*         N/A     75  66  73 SW3       30.00F
FOLEY*           N/A     73  70  88 CALM      29.99F
GRAND BAY*       N/A     66  66 100 CALM      30.00F
DAUPHIN ISLND* NOT AVBL
BON SCOUR NWR* NOT AVBL
GULF SHORES    CLOUDY    71  67  86 S6        30.02S

$$

ALZ051>060-282100-
INTERIOR SOUTHWEST AND SOUTH CENTRAL ALABAMA

CITY           SKY/WX    TMP DP  RH WIND       PRES   REMARKS
GREENVILLE     CLOUDY    71  64  78 CALM      30.02F
EVERGREEN      PTSUNNY   74  66  76 CALM      30.02F
CASTLEBERRY*   NOT AVBL
ATMORE*          N/A     73  68  83 S7        30.03F
DIXIE*           N/A     73  68  83 NW3       30.00F
ANDALUSIA/OPP  PTSUNNY   77  66  68 NW6       30.02F
ANDALUSIA*       N/A     72  68  88 W6        30.03F
FLORALA APT    PTSUNNY   74  68  81 CALM      30.04F
FLORALA*         N/A     73  70  88 CALM      29.99F

$$

FLZ001>006-282100-
WESTERN FLORIDA PANHANDLE

CITY           SKY/WX    TMP DP  RH WIND       PRES   REMARKS
PENSACOLA      PTSUNNY   75  66  73 S9        30.01F
NAS PENSACOLA  CLOUDY    74  67  78 S10       30.02S
MILTON         PTSUNNY   75  66  73 W3        30.01F
WHTNG S FIELD  CLOUDY    77  66  68 CALM      30.01F


CITY           SKY/WX    TMP DP  RH WIND       PRES   REMARKS
WALNUT HILL*   NOT AVBL
JAY*           NOT AVBL
DUKE FIELD     PTSUNNY   74  69  83 S6        30.02F
CRESTVIEW      PTSUNNY   75  68  78 SW5       30.03F
VALPARAISO     PTSUNNY   72  68  86 S8        30.03F
DESTIN         LGT RAIN  72  69  90 CALM      30.03F

$$

MSZ076-079-282100-
INTERIOR SOUTHEAST MISSISSIPPI

CITY           SKY/WX    TMP DP  RH WIND       PRES   REMARKS
LEAKESVILLE*   NOT AVBL
AGRICOLA*      NOT AVBL

$$

MARINE OBSERVATIONS

STATION/POSITION TIME  TEMP    WIND        PRES    WAVE
                       AIR SEA DIR/SP/G            HT/PER
                 (UTC) (F)     (DEG/KT/KT) (MB)    (FT/S)
PASCAGOULA       2000   63     190/  3/  3 1016.0F
PETIT BOIS ISLND 2000   64     140/  4/  5 1016.6R
GRAND BAY        1900   62     220/  9     1018.0S
KATRINA CUT      1900   62     300/  2     1017.6F
CEDAR POINT      1900   62     260/  7     1017.6R
E DAUPHIN ISLAND 1900   65     250/  5/  9 1016.8F
MIDDLE BAY LIGHT 1900   58     220/ 14     1016.3F
USCG MOBILE BAY  2000   67 58  170/  4/  8 1015.6R
STATE DOCKS      2000   64 56              1016.2R
MEAHER PARK      1900   62     160/  2     1016.6F
WEEKS BAY        1900   73                   N/A
FORT MORGAN      2000   64     240/  8/  8 1016.5F
12 S ORANGE BCH  2000   69 69  210/  2/  2 1016.1F   3/ 5
PENSACOLA BAY    2000   70 60  190/  2/  4 1016.8R
64 S DAUPHIN ISL 2000   70 74  320/  6/  6 1016.4F   3/ 6

$$

SELECTED LOCATIONS ACROSS THE REGION

CITY           SKY/WX    TMP DP  RH WIND       PRES   REMARKS
NEW ORLEANS    CLOUDY    60  57  89 NW6       30.05R
GULFPORT       CLOUDY    65  63  93 S5        30.01F FOG
PASCAGOULA AP  CLOUDY    70  66  87 SE3       30.01F
PASCAGOULA*      N/A     66  66 100 E2        30.01F
HATTIESBURG    CLOUDY    60  56  86 NW7       30.05F
LAUREL         CLOUDY    57  54  88 N10       30.06S
MERIDIAN       CLOUDY    57  54  89 N10       30.06F
JACKSON        CLOUDY    48  46  93 NW8       30.12F
MONTGOMERY     CLOUDY    65  61  87 NW7       30.04F
TROY           CLOUDY    69  65  86 NW8       30.04F
KINSTON*       NOT AVBL
GENEVA*          N/A     73  68  83 CALM      30.05F
ASHFORD*         N/A     72  68  88 W6        30.03F
DOTHAN         PTSUNNY   71  67  87 CALM      30.07F
PANAMA CITY    CLOUDY    73  67  81 S10       30.04F

$$



USA.gov is the U.S. government's official web portal to all federal, state and local government web resources and services.